Location: Bruderhein
(53.8035°N, 112.9265°W)
Time: 15:06:06
(UTC+00:00)

MOZHAYETS 4 - Visible Passes

Search period start: 21 March 2023 00:00
Search period end: 31 March 2023 00:00
Orbit: 658 x 676 km, 98.2° (Epoch: 21 March)

Date Brightness Start Highest point End Pass type
(mag) Time Alt. Az. Time Alt. Az. Time Alt. Az.
21 Mar 10.1 08:25:51 18° NE 08:25:51 18° NE 08:28:42 10° NNE visible
21 Mar 8.9 10:04:00 36° NNW 10:04:00 36° NNW 10:06:43 10° NNW visible
21 Mar 10.0 11:42:07 10° NW 11:42:07 10° NW 11:42:09 10° NW visible
22 Mar 9.5 08:57:51 28° NE 08:57:51 28° NE 09:01:05 10° N visible
22 Mar 9.0 10:36:00 28° NW 10:36:00 28° NW 10:38:26 10° NNW visible
23 Mar 10.6 07:51:44 10° ENE 07:52:44 11° NE 07:53:49 10° NNE visible
23 Mar 8.8 09:29:52 41° NNE 09:29:52 41° NNE 09:33:12 10° N visible
23 Mar 9.4 11:08:00 19° WNW 11:08:00 19° WNW 11:09:52 10° NW visible
24 Mar 10.1 08:23:43 17° ENE 08:24:07 18° NE 08:27:05 10° NNE visible
24 Mar 8.4 10:01:51 48° NNW 10:01:51 48° NNW 10:05:09 10° NNW visible
24 Mar 9.8 11:40:00 12° WNW 11:40:00 12° WNW 11:40:41 10° NW visible
25 Mar 9.4 08:55:43 28° ENE 08:55:43 28° ENE 08:59:29 10° N visible
25 Mar 8.6 10:33:50 35° NW 10:33:50 35° NW 10:36:52 10° NNW visible
26 Mar 10.6 07:50:21 10° ENE 07:51:10 10° NE 07:52:00 10° NE visible
26 Mar 8.6 09:27:42 47° NE 09:27:42 47° NE 09:31:36 10° N visible
26 Mar 9.1 11:05:50 22° WNW 11:05:50 22° WNW 11:08:19 10° NW visible
27 Mar 10.1 08:21:33 16° ENE 08:22:32 17° NE 08:25:26 10° NNE visible
27 Mar 7.9 09:59:40 64° NNW 09:59:40 64° NNW 10:03:32 10° NNW visible
27 Mar 9.6 11:37:48 13° WNW 11:37:48 13° WNW 11:39:10 10° NW visible
28 Mar 9.4 08:53:31 27° ENE 08:53:59 28° ENE 08:57:51 10° N visible
28 Mar 8.2 10:31:39 43° WNW 10:31:39 43° WNW 10:35:16 10° NNW visible
29 Mar 10.7 07:49:06 10° NE 07:49:35 10° NE 07:50:04 10° NE visible
29 Mar 8.5 09:25:29 47° ENE 09:25:35 48° ENE 09:29:58 10° N visible
29 Mar 8.9 11:03:37 25° WNW 11:03:37 25° WNW 11:06:43 10° NW visible
30 Mar 10.2 08:19:20 14° ENE 08:20:54 17° NE 08:23:45 10° NNE visible
30 Mar 7.6 09:57:27 83° NNE 09:57:27 83° NNE 10:01:54 10° NNW visible
30 Mar 9.5 11:35:35 15° WNW 11:35:35 15° WNW 11:37:37 10° NW visible
